Location: Unspecified
(0.0000°N, 0.0000°E)
Time: 16:15:13
(UTC+02:00)

Cosmos 773 Rocket - Visible Passes

Search period start: 01 October 2014 00:00
Search period end: 11 October 2014 00:00
Orbit: 746 x 779 km, 74.1° (Epoch: 30 September)

Date Brightness Start Highest point End Pass type
(mag) Time Alt. Az. Time Alt. Az. Time Alt. Az.
09 Oct 4.9 21:25:43 10° N 21:28:46 35° N 21:28:46 35° N visible
10 Oct 4.7 20:47:40 10° NNE 20:52:13 31° ENE 20:55:55 14° SE visible
10 Oct 6.7 22:30:59 10° WNW 22:33:51 15° WSW 22:36:44 10° SW visible
